Year,Month,Day,Hour,Minute,Value (Times are PST for temperature in C)
2008,06,30,00,00,15.50
2008,06,30,00,01,15.40
2008,06,30,00,02,15.40
2008,06,30,00,03,15.40
2008,06,30,00,04,15.30
2008,06,30,00,05,15.30
2008,06,30,00,06,15.30
2008,06,30,00,07,15.30
2008,06,30,00,08,15.30
2008,06,30,00,09,15.40
2008,06,30,00,10,15.40
2008,06,30,00,11,15.40
2008,06,30,00,12,15.40
2008,06,30,00,13,15.50
2008,06,30,00,14,15.50
2008,06,30,00,15,15.40
2008,06,30,00,16,15.30
2008,06,30,00,17,15.30
2008,06,30,00,18,15.30
2008,06,30,00,19,15.20
2008,06,30,00,20,15.20
2008,06,30,00,21,15.20
2008,06,30,00,22,15.20
2008,06,30,00,23,15.10
2008,06,30,00,24,15.10
2008,06,30,00,25,15.00
2008,06,30,00,26,15.00
2008,06,30,00,27,15.00
2008,06,30,00,28,15.00
2008,06,30,00,29,15.00
2008,06,30,00,30,15.00
2008,06,30,00,31,15.00
2008,06,30,00,32,15.10
2008,06,30,00,33,15.10
2008,06,30,00,34,15.20
2008,06,30,00,35,15.20
2008,06,30,00,36,15.30
2008,06,30,00,37,15.30
2008,06,30,00,38,15.20
2008,06,30,00,39,15.00
2008,06,30,00,40,14.90
2008,06,30,00,41,14.70
2008,06,30,00,42,14.60
2008,06,30,00,43,14.60
2008,06,30,00,44,14.50
2008,06,30,00,45,14.50
2008,06,30,00,46,14.40
2008,06,30,00,47,14.40
2008,06,30,00,48,14.40
2008,06,30,00,49,14.40
2008,06,30,00,50,14.40
2008,06,30,00,51,14.40
2008,06,30,00,52,14.40
2008,06,30,00,53,14.40
2008,06,30,00,54,14.40
2008,06,30,00,55,14.50
2008,06,30,00,56,14.50
2008,06,30,00,57,14.50
2008,06,30,00,58,14.40
2008,06,30,00,59,14.40
2008,06,30,01,00,14.30
2008,06,30,01,01,14.30
2008,06,30,01,02,14.30
2008,06,30,01,03,14.20
2008,06,30,01,04,14.20
2008,06,30,01,05,14.20
2008,06,30,01,06,14.20
2008,06,30,01,07,14.20
2008,06,30,01,08,14.20
2008,06,30,01,09,14.10
2008,06,30,01,10,14.10
2008,06,30,01,11,14.10
2008,06,30,01,12,14.10
2008,06,30,01,13,14.10
2008,06,30,01,14,14.10
2008,06,30,01,15,14.10
2008,06,30,01,16,14.10
2008,06,30,01,17,14.10
2008,06,30,01,18,14.10
2008,06,30,01,19,14.10
2008,06,30,01,20,14.10
2008,06,30,01,21,14.10
2008,06,30,01,22,14.10
2008,06,30,01,23,14.10
2008,06,30,01,24,14.10
2008,06,30,01,25,14.20
2008,06,30,01,26,14.20
2008,06,30,01,27,14.30
2008,06,30,01,28,14.30
2008,06,30,01,29,14.30
2008,06,30,01,30,14.40
2008,06,30,01,31,14.50
2008,06,30,01,32,14.60
2008,06,30,01,33,14.60
2008,06,30,01,34,14.70
2008,06,30,01,35,14.80
2008,06,30,01,36,14.90
2008,06,30,01,37,15.00
2008,06,30,01,38,15.00
2008,06,30,01,39,15.00
2008,06,30,01,40,15.00
2008,06,30,01,41,15.00
2008,06,30,01,42,15.00
2008,06,30,01,43,15.10
2008,06,30,01,44,15.20
2008,06,30,01,45,15.20
2008,06,30,01,46,15.30
2008,06,30,01,47,15.30
2008,06,30,01,48,15.40
2008,06,30,01,49,15.40
2008,06,30,01,50,15.50
2008,06,30,01,51,15.60
2008,06,30,01,52,15.60
2008,06,30,01,53,15.70
2008,06,30,01,54,15.70
2008,06,30,01,55,15.70
2008,06,30,01,56,15.70
2008,06,30,01,57,15.60
2008,06,30,01,58,15.60
2008,06,30,01,59,15.60
2008,06,30,02,00,15.50
2008,06,30,02,01,15.50
2008,06,30,02,02,15.50
2008,06,30,02,03,15.40
2008,06,30,02,04,15.40
2008,06,30,02,05,15.40
2008,06,30,02,06,15.30
2008,06,30,02,07,15.30
2008,06,30,02,08,15.20
2008,06,30,02,09,15.10
2008,06,30,02,10,15.00
2008,06,30,02,11,15.00
2008,06,30,02,12,15.00
2008,06,30,02,13,15.00
2008,06,30,02,14,15.00
2008,06,30,02,15,15.00
2008,06,30,02,16,15.00
2008,06,30,02,17,15.00
2008,06,30,02,18,15.00
2008,06,30,02,19,15.00
2008,06,30,02,20,15.00
2008,06,30,02,21,15.00
2008,06,30,02,22,15.00
2008,06,30,02,23,15.00
2008,06,30,02,24,14.90
2008,06,30,02,25,14.80
2008,06,30,02,26,14.80
2008,06,30,02,27,14.70
2008,06,30,02,28,14.70
2008,06,30,02,29,14.60
2008,06,30,02,30,14.50
2008,06,30,02,31,14.50
2008,06,30,02,32,14.40
2008,06,30,02,33,14.40
2008,06,30,02,34,14.30
2008,06,30,02,35,14.30
2008,06,30,02,36,14.20
2008,06,30,02,37,14.20
2008,06,30,02,38,14.20
2008,06,30,02,39,14.20
2008,06,30,02,40,14.20
2008,06,30,02,41,14.20
2008,06,30,02,42,14.20
2008,06,30,02,43,14.30
2008,06,30,02,44,14.30
2008,06,30,02,45,14.30
2008,06,30,02,46,14.30
2008,06,30,02,47,14.30
2008,06,30,02,48,14.40
2008,06,30,02,49,14.40
2008,06,30,02,50,14.40
2008,06,30,02,51,14.40
2008,06,30,02,52,14.40
2008,06,30,02,53,14.40
2008,06,30,02,54,14.40
2008,06,30,02,55,14.40
2008,06,30,02,56,14.50
2008,06,30,02,57,14.50
2008,06,30,02,58,14.50
2008,06,30,02,59,14.60
2008,06,30,03,00,14.60
2008,06,30,03,01,14.70
2008,06,30,03,02,14.70
2008,06,30,03,03,14.70
2008,06,30,03,04,14.70
2008,06,30,03,05,14.60
2008,06,30,03,06,14.40
2008,06,30,03,07,14.20
2008,06,30,03,08,14.10
2008,06,30,03,09,14.00
2008,06,30,03,10,13.90
2008,06,30,03,11,13.80
2008,06,30,03,12,13.70
2008,06,30,03,13,13.60
2008,06,30,03,14,13.40
2008,06,30,03,15,13.20
2008,06,30,03,16,13.10
2008,06,30,03,17,13.00
2008,06,30,03,18,12.90
2008,06,30,03,19,12.90
2008,06,30,03,20,12.90
2008,06,30,03,21,12.90
2008,06,30,03,22,12.90
2008,06,30,03,23,12.90
2008,06,30,03,24,12.90
2008,06,30,03,25,12.90
2008,06,30,03,26,13.00
2008,06,30,03,27,13.00
2008,06,30,03,28,13.00
2008,06,30,03,29,13.10
2008,06,30,03,30,13.10
2008,06,30,03,31,13.20
2008,06,30,03,32,13.20
2008,06,30,03,33,13.30
2008,06,30,03,34,13.40
2008,06,30,03,35,13.40
2008,06,30,03,36,13.40
2008,06,30,03,37,13.40
2008,06,30,03,38,13.40
2008,06,30,03,39,13.40
2008,06,30,03,40,13.40
2008,06,30,03,41,13.40
2008,06,30,03,42,13.50
2008,06,30,03,43,13.60
2008,06,30,03,44,13.60
2008,06,30,03,45,13.60
2008,06,30,03,46,13.60
2008,06,30,03,47,13.70
2008,06,30,03,48,13.70
2008,06,30,03,49,13.70
2008,06,30,03,50,13.70
2008,06,30,03,51,13.80
2008,06,30,03,52,13.80
2008,06,30,03,53,13.80
2008,06,30,03,54,13.80
2008,06,30,03,55,13.80
2008,06,30,03,56,13.90
2008,06,30,03,57,13.90
2008,06,30,03,58,13.90
2008,06,30,03,59,14.00
2008,06,30,04,00,14.00
2008,06,30,04,01,14.00
2008,06,30,04,02,14.10
2008,06,30,04,03,14.10
2008,06,30,04,04,14.20
2008,06,30,04,05,14.20
2008,06,30,04,06,14.20
2008,06,30,04,07,14.20
2008,06,30,04,08,14.30
2008,06,30,04,09,14.30
2008,06,30,04,10,14.30
2008,06,30,04,11,14.40
2008,06,30,04,12,14.40
2008,06,30,04,13,14.40
2008,06,30,04,14,14.40
2008,06,30,04,15,14.50
2008,06,30,04,16,14.50
2008,06,30,04,17,14.50
2008,06,30,04,18,14.60
2008,06,30,04,19,14.60
2008,06,30,04,20,14.60
2008,06,30,04,21,14.60
2008,06,30,04,22,14.60
2008,06,30,04,23,14.70
2008,06,30,04,24,14.70
2008,06,30,04,25,14.80
2008,06,30,04,26,14.80
2008,06,30,04,27,14.80
2008,06,30,04,28,14.90
2008,06,30,04,29,14.90
2008,06,30,04,30,15.00
2008,06,30,04,31,15.00
2008,06,30,04,32,15.00
2008,06,30,04,33,15.00
2008,06,30,04,34,15.00
2008,06,30,04,35,15.00
2008,06,30,04,36,15.00
2008,06,30,04,37,15.00
2008,06,30,04,38,15.00
2008,06,30,04,39,15.00
2008,06,30,04,40,15.00
2008,06,30,04,41,14.80
2008,06,30,04,42,14.70
2008,06,30,04,43,14.70
2008,06,30,04,44,14.60
2008,06,30,04,45,14.50
2008,06,30,04,46,14.50
2008,06,30,04,47,14.40
2008,06,30,04,48,14.30
2008,06,30,04,49,14.30
2008,06,30,04,50,14.20
2008,06,30,04,51,14.20
2008,06,30,04,52,14.20
2008,06,30,04,53,14.20
2008,06,30,04,54,14.20
2008,06,30,04,55,14.20
2008,06,30,04,56,14.10
2008,06,30,04,57,14.10
2008,06,30,04,58,14.10
2008,06,30,04,59,14.10
2008,06,30,05,00,14.10
2008,06,30,05,01,14.10
2008,06,30,05,02,14.10
2008,06,30,05,03,14.20
2008,06,30,05,04,14.20
2008,06,30,05,05,14.20
2008,06,30,05,06,14.20
2008,06,30,05,07,14.20
2008,06,30,05,08,14.30
2008,06,30,05,09,14.30
2008,06,30,05,10,14.30
2008,06,30,05,11,14.40
2008,06,30,05,12,14.50
2008,06,30,05,13,14.50
2008,06,30,05,14,14.60
2008,06,30,05,15,14.60
2008,06,30,05,16,14.70
2008,06,30,05,17,14.70
2008,06,30,05,18,14.70
2008,06,30,05,19,14.80
2008,06,30,05,20,14.80
2008,06,30,05,21,14.90
2008,06,30,05,22,15.00
2008,06,30,05,23,15.00
2008,06,30,05,24,15.00
2008,06,30,05,25,15.00
2008,06,30,05,26,15.00
2008,06,30,05,27,15.00
2008,06,30,05,28,15.00
2008,06,30,05,29,15.00
2008,06,30,05,30,15.00
2008,06,30,05,31,15.00
2008,06,30,05,32,15.00
2008,06,30,05,33,15.00
2008,06,30,05,34,15.00
2008,06,30,05,35,15.00
2008,06,30,05,36,15.00
2008,06,30,05,37,15.00
2008,06,30,05,38,15.00
2008,06,30,05,39,15.00
2008,06,30,05,40,15.00
2008,06,30,05,41,15.00
2008,06,30,05,42,15.00
2008,06,30,05,43,15.00
2008,06,30,05,44,15.00
2008,06,30,05,45,15.00
2008,06,30,05,46,14.90
2008,06,30,05,47,14.90
2008,06,30,05,48,14.80
2008,06,30,05,49,14.80
2008,06,30,05,50,14.70
2008,06,30,05,51,14.70
2008,06,30,05,52,14.70
2008,06,30,05,53,14.60
2008,06,30,05,54,14.60
2008,06,30,05,55,14.60
2008,06,30,05,56,14.50
2008,06,30,05,57,14.50
2008,06,30,05,58,14.50
2008,06,30,05,59,14.50
2008,06,30,06,00,14.50
2008,06,30,06,01,14.50
2008,06,30,06,02,14.50
2008,06,30,06,03,14.50
2008,06,30,06,04,14.50
2008,06,30,06,05,14.50
2008,06,30,06,06,14.50
2008,06,30,06,07,14.50
2008,06,30,06,08,14.50
2008,06,30,06,09,14.50
2008,06,30,06,10,14.50
2008,06,30,06,11,14.50
2008,06,30,06,12,14.60
2008,06,30,06,13,14.60
2008,06,30,06,14,14.60
2008,06,30,06,15,14.60
2008,06,30,06,16,14.60
2008,06,30,06,17,14.60
2008,06,30,06,18,14.60
2008,06,30,06,19,14.60
2008,06,30,06,20,14.60
2008,06,30,06,21,14.60
2008,06,30,06,22,14.60
2008,06,30,06,23,14.60
2008,06,30,06,24,14.60
2008,06,30,06,25,14.60
2008,06,30,06,26,14.50
2008,06,30,06,27,14.50
2008,06,30,06,28,14.50
2008,06,30,06,29,14.50
2008,06,30,06,30,14.50
2008,06,30,06,31,14.50
2008,06,30,06,32,14.50
2008,06,30,06,33,14.50
2008,06,30,06,34,14.50
2008,06,30,06,35,14.50
2008,06,30,06,36,14.50
2008,06,30,06,37,14.60
2008,06,30,06,38,14.60
2008,06,30,06,39,14.60
2008,06,30,06,40,14.60
2008,06,30,06,41,14.60
2008,06,30,06,42,14.60
2008,06,30,06,43,14.70
2008,06,30,06,44,14.70
2008,06,30,06,45,14.70
2008,06,30,06,46,14.80
2008,06,30,06,47,14.80
2008,06,30,06,48,14.80
2008,06,30,06,49,14.80
2008,06,30,06,50,14.80
2008,06,30,06,51,14.80
2008,06,30,06,52,14.90
2008,06,30,06,53,14.90
2008,06,30,06,54,14.90
2008,06,30,06,55,15.00
2008,06,30,06,56,15.00
2008,06,30,06,57,15.00
2008,06,30,06,58,15.00
2008,06,30,06,59,15.00
2008,06,30,07,00,15.00
2008,06,30,07,01,15.00
2008,06,30,07,02,15.00
2008,06,30,07,03,15.00
2008,06,30,07,04,15.00
2008,06,30,07,05,15.00
2008,06,30,07,06,15.00
2008,06,30,07,07,15.00
2008,06,30,07,08,15.00
2008,06,30,07,09,15.00
2008,06,30,07,10,15.00
2008,06,30,07,11,15.00
2008,06,30,07,12,15.00
2008,06,30,07,13,15.00
2008,06,30,07,14,15.00
2008,06,30,07,15,15.00
2008,06,30,07,16,15.00
2008,06,30,07,17,15.00
2008,06,30,07,18,15.00
2008,06,30,07,19,15.00
2008,06,30,07,20,15.00
2008,06,30,07,21,15.00
2008,06,30,07,22,15.00
2008,06,30,07,23,15.00
2008,06,30,07,24,15.10
2008,06,30,07,25,15.20
2008,06,30,07,26,15.20
2008,06,30,07,27,15.30
2008,06,30,07,28,15.30
2008,06,30,07,29,15.40
2008,06,30,07,30,15.40
2008,06,30,07,31,15.50
2008,06,30,07,32,15.60
2008,06,30,07,33,15.60
2008,06,30,07,34,15.70
2008,06,30,07,35,15.70
2008,06,30,07,36,15.70
2008,06,30,07,37,15.60
2008,06,30,07,38,15.50
2008,06,30,07,39,15.30
2008,06,30,07,40,15.00
2008,06,30,07,41,15.00
2008,06,30,07,42,14.80
2008,06,30,07,43,14.50
2008,06,30,07,44,14.40
2008,06,30,07,45,14.20
2008,06,30,07,46,14.10
2008,06,30,07,47,13.90
2008,06,30,07,48,13.80
2008,06,30,07,49,13.70
2008,06,30,07,50,13.60
2008,06,30,07,51,13.60
2008,06,30,07,52,13.50
2008,06,30,07,53,13.40
2008,06,30,07,54,13.40
2008,06,30,07,55,13.30
2008,06,30,07,56,13.10
2008,06,30,07,57,13.00
2008,06,30,07,58,12.90
2008,06,30,07,59,12.80
2008,06,30,08,00,12.80
2008,06,30,08,01,12.70
2008,06,30,08,02,12.70
2008,06,30,08,03,12.70
2008,06,30,08,04,12.60
2008,06,30,08,05,12.60
2008,06,30,08,06,12.60
2008,06,30,08,07,12.50
2008,06,30,08,08,12.50
2008,06,30,08,09,12.50
2008,06,30,08,10,12.50
2008,06,30,08,11,12.50
2008,06,30,08,12,12.50
2008,06,30,08,13,12.50
2008,06,30,08,14,12.50
2008,06,30,08,15,12.50
2008,06,30,08,16,12.50
2008,06,30,08,17,12.50
2008,06,30,08,18,12.50
2008,06,30,08,19,12.50
2008,06,30,08,20,12.50
2008,06,30,08,21,12.50
2008,06,30,08,22,12.50
2008,06,30,08,23,12.50
2008,06,30,08,24,12.50
2008,06,30,08,25,12.50
2008,06,30,08,26,12.50
2008,06,30,08,27,12.50
2008,06,30,08,28,12.50
2008,06,30,08,29,12.40
2008,06,30,08,30,12.40
2008,06,30,08,31,12.40
2008,06,30,08,32,12.40
2008,06,30,08,33,12.40
2008,06,30,08,34,12.40
2008,06,30,08,35,12.40
2008,06,30,08,36,12.50
2008,06,30,08,37,12.50
2008,06,30,08,38,12.60
2008,06,30,08,39,12.60
2008,06,30,08,40,12.70
2008,06,30,08,41,12.70
2008,06,30,08,42,12.70
2008,06,30,08,43,12.70
2008,06,30,08,44,12.70
2008,06,30,08,45,12.70
2008,06,30,08,46,12.80
2008,06,30,08,47,12.80
2008,06,30,08,48,12.80
2008,06,30,08,49,12.80
2008,06,30,08,50,12.80
2008,06,30,08,51,12.80
2008,06,30,08,52,12.80
2008,06,30,08,53,12.90
2008,06,30,08,54,12.90
2008,06,30,08,55,13.00
2008,06,30,08,56,13.00
2008,06,30,08,57,13.10
2008,06,30,08,58,13.20
2008,06,30,08,59,13.30
2008,06,30,09,00,13.40
2008,06,30,09,01,13.60
2008,06,30,09,02,13.70
2008,06,30,09,03,13.70
2008,06,30,09,04,13.80
2008,06,30,09,05,13.80
2008,06,30,09,06,13.90
2008,06,30,09,07,14.00
2008,06,30,09,08,14.10
2008,06,30,09,09,14.20
2008,06,30,09,10,14.40
2008,06,30,09,11,14.50
2008,06,30,09,12,14.70
2008,06,30,09,13,14.80
2008,06,30,09,14,15.00
2008,06,30,09,15,15.00
2008,06,30,09,16,15.00
2008,06,30,09,17,15.10
2008,06,30,09,18,15.20
2008,06,30,09,19,15.20
2008,06,30,09,20,15.20
2008,06,30,09,21,15.10
2008,06,30,09,22,15.00
2008,06,30,09,23,15.00
2008,06,30,09,24,15.00
2008,06,30,09,25,14.80
2008,06,30,09,26,14.70
2008,06,30,09,27,14.70
2008,06,30,09,28,14.60
2008,06,30,09,29,14.60
2008,06,30,09,30,14.60
2008,06,30,09,31,14.70
2008,06,30,09,32,14.70
2008,06,30,09,33,14.70
2008,06,30,09,34,14.70
2008,06,30,09,35,14.70
2008,06,30,09,36,14.80
2008,06,30,09,37,14.80
2008,06,30,09,38,14.80
2008,06,30,09,39,14.70
2008,06,30,09,40,14.70
2008,06,30,09,41,14.60
2008,06,30,09,42,14.50
2008,06,30,09,43,14.40
2008,06,30,09,44,14.40
2008,06,30,09,45,14.50
2008,06,30,09,46,14.60
2008,06,30,09,47,14.60
2008,06,30,09,48,14.80
2008,06,30,09,49,14.90
2008,06,30,09,50,15.00
2008,06,30,09,51,15.00
2008,06,30,09,52,15.00
2008,06,30,09,53,15.10
2008,06,30,09,54,15.20
2008,06,30,09,55,15.20
2008,06,30,09,56,15.30
2008,06,30,09,57,15.40
2008,06,30,09,58,15.50
2008,06,30,09,59,15.70
2008,06,30,10,00,15.90
2008,06,30,10,01,16.10
2008,06,30,10,02,16.20
2008,06,30,10,03,16.30
2008,06,30,10,04,16.30
2008,06,30,10,05,16.40
2008,06,30,10,06,16.40
2008,06,30,10,07,16.40
2008,06,30,10,08,16.40
2008,06,30,10,09,16.50
2008,06,30,10,10,16.60
2008,06,30,10,11,16.70
2008,06,30,10,12,16.80
2008,06,30,10,13,16.80
2008,06,30,10,14,16.80
2008,06,30,10,15,16.80
2008,06,30,10,16,16.90
2008,06,30,10,17,16.90
2008,06,30,10,18,17.00
2008,06,30,10,19,17.00
2008,06,30,10,20,17.20
2008,06,30,10,21,17.30
2008,06,30,10,22,17.40
2008,06,30,10,23,17.70
2008,06,30,10,24,17.90
2008,06,30,10,25,18.00
2008,06,30,10,26,18.20
2008,06,30,10,27,18.30
2008,06,30,10,28,18.50
2008,06,30,10,29,18.50
2008,06,30,10,30,18.60
2008,06,30,10,31,18.60
2008,06,30,10,32,18.60
2008,06,30,10,33,18.60
2008,06,30,10,34,18.60
2008,06,30,10,35,18.70
2008,06,30,10,36,18.70
2008,06,30,10,37,18.80
2008,06,30,10,38,18.80
2008,06,30,10,39,18.90
2008,06,30,10,40,18.90
2008,06,30,10,41,18.90
2008,06,30,10,42,18.90
2008,06,30,10,43,18.80
2008,06,30,10,44,18.70
2008,06,30,10,45,18.50
2008,06,30,10,46,18.40
2008,06,30,10,47,18.40
2008,06,30,10,48,18.40
2008,06,30,10,49,18.50
2008,06,30,10,50,18.50
2008,06,30,10,51,18.60
2008,06,30,10,52,18.70
2008,06,30,10,53,18.80
2008,06,30,10,54,18.90
2008,06,30,10,55,18.90
2008,06,30,10,56,18.90
2008,06,30,10,57,18.90
2008,06,30,10,58,18.90
2008,06,30,10,59,18.90
2008,06,30,11,00,19.00
2008,06,30,11,01,19.00
2008,06,30,11,02,19.10
2008,06,30,11,03,19.20
2008,06,30,11,04,19.20
2008,06,30,11,05,19.20
2008,06,30,11,06,19.30
2008,06,30,11,07,19.40
2008,06,30,11,08,19.40
2008,06,30,11,09,19.40
2008,06,30,11,10,19.40
2008,06,30,11,11,19.50
2008,06,30,11,12,19.60
2008,06,30,11,13,19.60
2008,06,30,11,14,19.60
2008,06,30,11,15,19.70
2008,06,30,11,16,19.80
2008,06,30,11,17,19.90
2008,06,30,11,18,20.00
2008,06,30,11,19,20.00
2008,06,30,11,20,20.10
2008,06,30,11,21,20.20
2008,06,30,11,22,20.30
2008,06,30,11,23,20.40
2008,06,30,11,24,20.50
2008,06,30,11,25,20.60
2008,06,30,11,26,20.70
2008,06,30,11,27,20.80
2008,06,30,11,28,20.90
2008,06,30,11,29,20.90
2008,06,30,11,30,21.00
2008,06,30,11,31,21.00
2008,06,30,11,32,21.10
2008,06,30,11,33,21.10
2008,06,30,11,34,21.20
2008,06,30,11,35,21.20
2008,06,30,11,36,21.30
2008,06,30,11,37,21.40
2008,06,30,11,38,21.50
2008,06,30,11,39,21.60
2008,06,30,11,40,21.70
2008,06,30,11,41,21.70
2008,06,30,11,42,21.70
2008,06,30,11,43,21.80
2008,06,30,11,44,21.80
2008,06,30,11,45,21.80
2008,06,30,11,46,21.70
2008,06,30,11,47,21.60
2008,06,30,11,48,21.50
2008,06,30,11,49,21.30
2008,06,30,11,50,21.20
2008,06,30,11,51,21.20
2008,06,30,11,52,21.20
2008,06,30,11,53,21.30
2008,06,30,11,54,21.30
2008,06,30,11,55,21.50
2008,06,30,11,56,21.60
2008,06,30,11,57,21.70
2008,06,30,11,58,21.80
2008,06,30,11,59,21.70
2008,06,30,12,00,21.70
2008,06,30,12,01,21.70
2008,06,30,12,02,21.70
2008,06,30,12,03,21.60
2008,06,30,12,04,21.60
2008,06,30,12,05,21.60
2008,06,30,12,06,21.70
2008,06,30,12,07,21.70
2008,06,30,12,08,21.70
2008,06,30,12,09,21.70
2008,06,30,12,10,21.80
2008,06,30,12,11,21.80
2008,06,30,12,12,21.90
2008,06,30,12,13,21.90
2008,06,30,12,14,22.00
2008,06,30,12,15,22.10
2008,06,30,12,16,22.20
2008,06,30,12,17,22.20
2008,06,30,12,18,22.30
2008,06,30,12,19,22.30
2008,06,30,12,20,22.30
2008,06,30,12,21,22.30
2008,06,30,12,22,22.30
2008,06,30,12,23,22.20
2008,06,30,12,24,22.00
2008,06,30,12,25,21.90
2008,06,30,12,26,21.80
2008,06,30,12,27,21.80
2008,06,30,12,28,21.80
2008,06,30,12,29,21.80
2008,06,30,12,30,21.70
2008,06,30,12,31,21.70
2008,06,30,12,32,21.70
2008,06,30,12,33,21.60
2008,06,30,12,34,21.50
2008,06,30,12,35,21.40
2008,06,30,12,36,21.30
2008,06,30,12,37,21.20
2008,06,30,12,38,21.20
2008,06,30,12,39,21.00
2008,06,30,12,40,20.90
2008,06,30,12,41,20.80
2008,06,30,12,42,20.70
2008,06,30,12,43,20.50
2008,06,30,12,44,20.20
2008,06,30,12,45,20.00
2008,06,30,12,46,19.80
2008,06,30,12,47,19.70
2008,06,30,12,48,19.60
2008,06,30,12,49,19.60
2008,06,30,12,50,19.50
2008,06,30,12,51,19.40
2008,06,30,12,52,19.40
2008,06,30,12,53,19.50
2008,06,30,12,54,19.60
2008,06,30,12,55,19.70
2008,06,30,12,56,19.80
2008,06,30,12,57,19.90
2008,06,30,12,58,20.00
2008,06,30,12,59,20.10
2008,06,30,13,00,20.20
2008,06,30,13,01,20.30
2008,06,30,13,02,20.30
2008,06,30,13,03,20.30
2008,06,30,13,04,20.30
2008,06,30,13,05,20.30
2008,06,30,13,06,20.30
2008,06,30,13,07,20.30
2008,06,30,13,08,20.30
2008,06,30,13,09,20.30
2008,06,30,13,10,20.30
2008,06,30,13,11,20.30
2008,06,30,13,12,20.30
2008,06,30,13,13,20.30
2008,06,30,13,14,20.30
2008,06,30,13,15,20.30
2008,06,30,13,16,20.30
2008,06,30,13,17,20.30
2008,06,30,13,18,20.40
2008,06,30,13,19,20.30
2008,06,30,13,20,20.30
2008,06,30,13,21,20.30
2008,06,30,13,22,20.40
2008,06,30,13,23,20.50
2008,06,30,13,24,20.70
2008,06,30,13,25,20.80
2008,06,30,13,26,20.90
2008,06,30,13,27,21.00
2008,06,30,13,28,21.10
2008,06,30,13,29,21.20
2008,06,30,13,30,21.20
2008,06,30,13,31,21.30
2008,06,30,13,32,21.40
2008,06,30,13,33,21.50
2008,06,30,13,34,21.60
2008,06,30,13,35,21.70
2008,06,30,13,36,21.60
2008,06,30,13,37,21.60
2008,06,30,13,38,21.60
2008,06,30,13,39,21.70
2008,06,30,13,40,21.90
2008,06,30,13,41,22.00
2008,06,30,13,42,22.10
2008,06,30,13,43,22.30
2008,06,30,13,44,22.30
2008,06,30,13,45,22.50
2008,06,30,13,46,22.50
2008,06,30,13,47,22.60
2008,06,30,13,48,22.70
2008,06,30,13,49,22.80
2008,06,30,13,50,22.80
2008,06,30,13,51,22.80
2008,06,30,13,52,22.80
2008,06,30,13,53,22.90
2008,06,30,13,54,23.00
2008,06,30,13,55,23.10
2008,06,30,13,56,23.10
2008,06,30,13,57,23.10
2008,06,30,13,58,23.10
2008,06,30,13,59,23.10
2008,06,30,14,00,23.20
2008,06,30,14,01,23.20
2008,06,30,14,02,23.30
2008,06,30,14,03,23.40
2008,06,30,14,04,23.60
2008,06,30,14,05,23.80
2008,06,30,14,06,24.00
2008,06,30,14,07,24.20
2008,06,30,14,08,24.40
2008,06,30,14,09,24.60
2008,06,30,14,10,24.70
2008,06,30,14,11,24.90
2008,06,30,14,12,24.90
2008,06,30,14,13,25.00
2008,06,30,14,14,25.10
2008,06,30,14,15,25.20
2008,06,30,14,16,25.20
2008,06,30,14,17,25.20
2008,06,30,14,18,25.20
2008,06,30,14,19,25.40
2008,06,30,14,20,25.50
2008,06,30,14,21,25.70
2008,06,30,14,22,25.80
2008,06,30,14,23,25.90
2008,06,30,14,24,26.10
2008,06,30,14,25,26.20
2008,06,30,14,26,26.20
2008,06,30,14,27,26.20
2008,06,30,14,28,26.10
2008,06,30,14,29,26.10
2008,06,30,14,30,26.00
2008,06,30,14,31,25.90
2008,06,30,14,32,25.90
2008,06,30,14,33,25.90
2008,06,30,14,34,25.90
2008,06,30,14,35,25.90
2008,06,30,14,36,25.90
2008,06,30,14,37,25.80
2008,06,30,14,38,25.70
2008,06,30,14,39,25.70
2008,06,30,14,40,25.70
2008,06,30,14,41,25.80
2008,06,30,14,42,25.90
2008,06,30,14,43,25.90
2008,06,30,14,44,25.80
2008,06,30,14,45,25.60
2008,06,30,14,46,25.50
2008,06,30,14,47,25.50
2008,06,30,14,48,25.40
2008,06,30,14,49,25.30
2008,06,30,14,50,25.30
2008,06,30,14,51,25.20
2008,06,30,14,52,25.20
2008,06,30,14,53,25.30
2008,06,30,14,54,25.30
2008,06,30,14,55,25.30
2008,06,30,14,56,25.30
2008,06,30,14,57,25.30
2008,06,30,14,58,25.30
2008,06,30,14,59,25.30
2008,06,30,15,00,25.20
2008,06,30,15,01,25.20
2008,06,30,15,02,25.20
2008,06,30,15,03,25.20
2008,06,30,15,04,25.30
2008,06,30,15,05,25.30
2008,06,30,15,06,25.30
2008,06,30,15,07,25.30
2008,06,30,15,08,25.30
2008,06,30,15,09,25.20
2008,06,30,15,10,25.20
2008,06,30,15,11,25.20
2008,06,30,15,12,25.20
2008,06,30,15,13,25.30
2008,06,30,15,14,25.50
2008,06,30,15,15,25.60
2008,06,30,15,16,25.70
2008,06,30,15,17,25.80
2008,06,30,15,18,25.90
2008,06,30,15,19,25.90
2008,06,30,15,20,25.90
2008,06,30,15,21,25.90
2008,06,30,15,22,25.90
2008,06,30,15,23,25.90
2008,06,30,15,24,25.90
2008,06,30,15,25,25.80
2008,06,30,15,26,25.80
2008,06,30,15,27,25.90
2008,06,30,15,28,25.90
2008,06,30,15,29,25.80
2008,06,30,15,30,25.70
2008,06,30,15,31,25.50
2008,06,30,15,32,25.30
2008,06,30,15,33,25.10
2008,06,30,15,34,24.90
2008,06,30,15,35,24.80
2008,06,30,15,36,24.70
2008,06,30,15,37,24.60
2008,06,30,15,38,24.30
2008,06,30,15,39,24.10
2008,06,30,15,40,24.00
2008,06,30,15,41,23.90
2008,06,30,15,42,23.80
2008,06,30,15,43,23.60
2008,06,30,15,44,23.60
2008,06,30,15,45,23.60
2008,06,30,15,46,23.60
2008,06,30,15,47,23.50
2008,06,30,15,48,23.40
2008,06,30,15,49,23.40
2008,06,30,15,50,23.40
2008,06,30,15,51,23.40
2008,06,30,15,52,23.30
2008,06,30,15,53,23.30
2008,06,30,15,54,23.30
2008,06,30,15,55,23.30
2008,06,30,15,56,23.40
2008,06,30,15,57,23.50
2008,06,30,15,58,23.60
2008,06,30,15,59,23.70
2008,06,30,16,00,23.80
2008,06,30,16,01,24.00
2008,06,30,16,02,24.10
2008,06,30,16,03,24.30
2008,06,30,16,04,24.40
2008,06,30,16,05,24.50
2008,06,30,16,06,24.50
2008,06,30,16,07,24.60
2008,06,30,16,08,24.60
2008,06,30,16,09,24.60
2008,06,30,16,10,24.70
2008,06,30,16,11,24.70
2008,06,30,16,12,24.80
2008,06,30,16,13,24.80
2008,06,30,16,14,24.90
2008,06,30,16,15,24.90
2008,06,30,16,16,25.00
2008,06,30,16,17,25.10
2008,06,30,16,18,25.10
2008,06,30,16,19,25.10
2008,06,30,16,20,25.10
2008,06,30,16,21,25.10
2008,06,30,16,22,25.20
2008,06,30,16,23,25.20
2008,06,30,16,24,25.20
2008,06,30,16,25,25.20
2008,06,30,16,26,25.10
2008,06,30,16,27,25.10
2008,06,30,16,28,25.10
2008,06,30,16,29,25.20
2008,06,30,16,30,25.30
2008,06,30,16,31,25.30
2008,06,30,16,32,25.30
2008,06,30,16,33,25.30
2008,06,30,16,34,25.30
2008,06,30,16,35,25.30
2008,06,30,16,36,25.30
2008,06,30,16,37,25.30
2008,06,30,16,38,25.30
2008,06,30,16,39,25.30
2008,06,30,16,40,25.30
2008,06,30,16,41,25.30
2008,06,30,16,42,25.30
2008,06,30,16,43,25.30
2008,06,30,16,44,25.30
2008,06,30,16,45,25.30
2008,06,30,16,46,25.30
2008,06,30,16,47,25.30
2008,06,30,16,48,25.30
2008,06,30,16,49,25.30
2008,06,30,16,50,25.30
2008,06,30,16,51,25.30
2008,06,30,16,52,25.30
2008,06,30,16,53,25.20
2008,06,30,16,54,25.30
2008,06,30,16,55,25.30
2008,06,30,16,56,25.30
2008,06,30,16,57,25.30
2008,06,30,16,58,25.30
2008,06,30,16,59,25.40
2008,06,30,17,00,25.40
2008,06,30,17,01,25.50
2008,06,30,17,02,25.50
2008,06,30,17,03,25.60
2008,06,30,17,04,25.60
2008,06,30,17,05,25.60
2008,06,30,17,06,25.60
2008,06,30,17,07,25.60
2008,06,30,17,08,25.60
2008,06,30,17,09,25.60
2008,06,30,17,10,25.50
2008,06,30,17,11,25.40
2008,06,30,17,12,25.40
2008,06,30,17,13,25.40
2008,06,30,17,14,25.40
2008,06,30,17,15,25.40
2008,06,30,17,16,25.40
2008,06,30,17,17,25.30
2008,06,30,17,18,25.30
2008,06,30,17,19,25.20